Time,TemperatureF,DewpointF,PressureIn,WindDirection,WindDirectionDegrees,WindSpeedMPH,WindSpeedGustMPH,Humidity,HourlyPrecipIn,Conditions,Clouds,dailyrainin,SoftwareType,DateUTC
2013-01-30 00:05:00,57.0,47.3,29.41,North,-999,0.0,2.2,70,0.00,,,-99.99,FreeWX-Wi 1.02,2013-01-30 05:05:00,
2013-01-30 00:15:00,57.0,47.7,29.41,North,-999,0.0,0.0,71,0.00,,,-99.99,FreeWX-Wi 1.02,2013-01-30 05:15:00,
2013-01-30 00:25:00,57.0,47.7,29.41,North,-999,0.0,0.0,71,0.00,,,-99.99,FreeWX-Wi 1.02,2013-01-30 05:25:00,
2013-01-30 00:35:00,57.0,47.7,29.41,North,-999,0.0,0.0,71,0.00,,,-99.99,FreeWX-Wi 1.02,2013-01-30 05:35:00,
2013-01-30 00:45:00,57.0,47.7,29.41,North,-999,0.0,4.0,71,0.00,,,-99.99,FreeWX-Wi 1.02,2013-01-30 05:45:00,
2013-01-30 00:55:00,57.0,47.7,29.41,North,-999,0.0,3.1,71,0.00,,,-99.99,FreeWX-Wi 1.02,2013-01-30 05:55:00,
2013-01-30 01:05:00,56.8,47.5,29.41,North,-999,0.0,0.0,71,0.00,,,-99.99,FreeWX-Wi 1.02,2013-01-30 06:05:00,
2013-01-30 01:15:00,56.7,47.7,29.41,North,-999,0.0,0.0,72,0.00,,,-99.99,FreeWX-Wi 1.02,2013-01-30 06:15:00,
2013-01-30 01:25:00,56.7,47.7,29.38,North,-999,0.0,3.6,72,0.00,,,-99.99,FreeWX-Wi 1.02,2013-01-30 06:25:00,
2013-01-30 01:35:00,56.8,47.8,29.38,North,-999,0.0,5.8,72,0.00,,,-99.99,FreeWX-Wi 1.02,2013-01-30 06:35:00,
2013-01-30 01:45:00,57.0,48.4,29.38,North,-999,0.0,3.1,73,0.00,,,-99.99,FreeWX-Wi 1.02,2013-01-30 06:45:00,
2013-01-30 01:55:00,57.2,48.2,29.38,North,-999,0.0,3.1,72,0.00,,,-99.99,FreeWX-Wi 1.02,2013-01-30 06:55:00,
2013-01-30 02:05:00,57.4,48.7,29.38,North,-999,0.0,0.0,73,0.00,,,-99.99,FreeWX-Wi 1.02,2013-01-30 07:05:00,
2013-01-30 02:15:00,57.6,48.9,29.38,North,-999,0.0,0.0,73,0.00,,,-99.99,FreeWX-Wi 1.02,2013-01-30 07:15:00,
2013-01-30 02:25:00,57.6,48.9,29.38,North,-999,0.0,0.0,73,0.00,,,-99.99,FreeWX-Wi 1.02,2013-01-30 07:25:00,
2013-01-30 02:35:00,57.9,49.3,29.38,North,-999,0.0,6.3,73,0.00,,,-99.99,FreeWX-Wi 1.02,2013-01-30 07:35:00,
2013-01-30 02:45:00,58.1,49.8,29.38,North,357,1.0,4.0,74,0.00,,,-99.99,FreeWX-Wi 1.02,2013-01-30 07:45:00,
2013-01-30 02:55:00,58.1,49.8,29.38,North,357,1.0,3.6,74,0.00,,,-99.99,FreeWX-Wi 1.02,2013-01-30 07:55:00,
2013-01-30 03:05:00,58.3,50.0,29.35,North,-999,0.0,4.0,74,0.00,,,-99.99,FreeWX-Wi 1.02,2013-01-30 08:05:00,
2013-01-30 03:15:00,58.3,50.0,29.35,North,-999,0.0,5.8,74,0.00,,,-99.99,FreeWX-Wi 1.02,2013-01-30 08:15:00,
2013-01-30 03:25:00,58.1,49.8,29.35,North,-999,0.0,3.6,74,0.00,,,-99.99,FreeWX-Wi 1.02,2013-01-30 08:25:00,
2013-01-30 03:35:00,58.3,50.0,29.35,North,-999,0.0,3.6,74,0.00,,,-99.99,FreeWX-Wi 1.02,2013-01-30 08:35:00,
2013-01-30 03:45:00,58.8,50.5,29.35,North,-999,0.0,5.4,74,0.00,,,-99.99,FreeWX-Wi 1.02,2013-01-30 08:45:00,
2013-01-30 03:55:00,59.2,50.9,29.35,North,-999,0.0,4.9,74,0.00,,,-99.99,FreeWX-Wi 1.02,2013-01-30 08:55:00,
2013-01-30 04:05:00,59.4,51.1,29.35,North,-999,0.0,5.4,74,0.00,,,-99.99,FreeWX-Wi 1.02,2013-01-30 09:05:00,
2013-01-30 04:15:00,59.5,51.3,29.35,North,-999,0.0,3.6,74,0.00,,,-99.99,FreeWX-Wi 1.02,2013-01-30 09:15:00,
2013-01-30 04:25:00,59.9,52.0,29.35,North,-999,0.0,4.0,75,0.00,,,-99.99,FreeWX-Wi 1.02,2013-01-30 09:25:00,
2013-01-30 04:35:00,60.1,52.2,29.32,North,-999,0.0,6.3,75,0.00,,,-99.99,FreeWX-Wi 1.02,2013-01-30 09:35:00,
2013-01-30 04:45:00,60.1,52.2,29.32,North,-999,0.0,4.9,75,0.00,,,-99.99,FreeWX-Wi 1.02,2013-01-30 09:45:00,
2013-01-30 04:55:00,60.3,52.3,29.32,North,357,1.0,7.2,75,0.00,,,-99.99,FreeWX-Wi 1.02,2013-01-30 09:55:00,
2013-01-30 05:05:00,60.4,52.5,29.32,North,357,1.0,6.3,75,0.00,,,-99.99,FreeWX-Wi 1.02,2013-01-30 10:05:00,
2013-01-30 05:15:00,60.6,53.1,29.32,North,357,1.0,3.1,76,0.00,,,-99.99,FreeWX-Wi 1.02,2013-01-30 10:15:00,
2013-01-30 05:25:00,61.0,53.1,29.32,North,357,1.0,5.8,75,0.00,,,-99.99,FreeWX-Wi 1.02,2013-01-30 10:25:00,
2013-01-30 05:35:00,61.0,53.1,29.32,North,-999,0.0,4.0,75,0.00,,,-99.99,FreeWX-Wi 1.02,2013-01-30 10:35:00,
2013-01-30 05:45:00,61.0,53.1,29.32,North,-999,0.0,4.0,75,0.00,,,-99.99,FreeWX-Wi 1.02,2013-01-30 10:45:00,
2013-01-30 05:55:00,61.2,53.2,29.32,North,-999,0.0,3.1,75,0.00,,,-99.99,FreeWX-Wi 1.02,2013-01-30 10:55:00,
2013-01-30 06:05:00,0.0,53.2,29.32,North,-999,0.0,5.4,75,0.00,,,-99.99,FreeWX-Wi 1.02,2013-01-30 11:05:00,
2013-01-30 06:15:00,0.0,53.2,29.32,North,-999,0.0,3.6,75,0.00,,,-99.99,FreeWX-Wi 1.02,2013-01-30 11:15:00,
2013-01-30 06:25:00,0.0,53.2,29.29,North,357,1.0,10.5,75,0.00,,,-99.99,FreeWX-Wi 1.02,2013-01-30 11:25:00,
2013-01-30 06:35:00,0.0,53.2,29.29,North,357,2.0,8.1,75,0.00,,,-99.99,FreeWX-Wi 1.02,2013-01-30 11:35:00,
2013-01-30 06:45:00,0.0,53.2,29.29,North,357,2.0,5.8,75,0.00,,,-99.99,FreeWX-Wi 1.02,2013-01-30 11:45:00,
2013-01-30 06:55:00,0.0,53.2,29.29,North,357,2.0,6.3,75,0.00,,,-99.99,FreeWX-Wi 1.02,2013-01-30 11:55:00,
2013-01-30 07:05:00,0.0,53.2,29.29,North,357,2.0,6.3,75,0.00,,,-99.99,FreeWX-Wi 1.02,2013-01-30 12:05:00,
2013-01-30 07:15:00,0.0,53.2,29.29,North,357,2.0,8.7,75,0.00,,,-99.99,FreeWX-Wi 1.02,2013-01-30 12:15:00,
2013-01-30 07:25:00,0.0,53.2,29.29,North,357,1.0,5.4,75,0.00,,,-99.99,FreeWX-Wi 1.02,2013-01-30 12:25:00,
2013-01-30 07:35:00,0.0,53.2,29.29,North,357,2.0,6.3,75,0.00,,,-99.99,FreeWX-Wi 1.02,2013-01-30 12:35:00,
2013-01-30 07:45:00,0.0,53.2,29.29,North,357,2.0,5.8,75,0.00,,,-99.99,FreeWX-Wi 1.02,2013-01-30 12:45:00,
2013-01-30 07:55:00,62.2,54.5,29.29,North,357,2.0,5.8,76,0.00,,,-99.99,FreeWX-Wi 1.02,2013-01-30 12:55:00,
2013-01-30 08:05:00,62.4,54.7,29.29,North,357,2.0,5.8,76,0.00,,,-99.99,FreeWX-Wi 1.02,2013-01-30 13:05:00,
2013-01-30 08:15:00,62.6,54.5,29.29,North,357,2.0,5.8,75,0.00,,,-99.99,FreeWX-Wi 1.02,2013-01-30 13:15:00,
2013-01-30 08:25:00,62.6,54.5,29.29,North,357,2.0,6.7,75,0.00,,,-99.99,FreeWX-Wi 1.02,2013-01-30 13:25:00,
2013-01-30 08:35:00,62.6,54.5,29.26,North,357,2.0,5.4,75,0.00,,,-99.99,FreeWX-Wi 1.02,2013-01-30 13:35:00,
2013-01-30 08:45:00,62.8,54.7,29.26,North,357,2.0,8.3,75,0.00,,,-99.99,FreeWX-Wi 1.02,2013-01-30 13:45:00,
2013-01-30 08:55:00,63.0,54.9,29.26,North,357,1.0,7.6,75,0.00,,,-99.99,FreeWX-Wi 1.02,2013-01-30 13:55:00,
2013-01-30 09:05:00,63.1,55.0,29.26,North,357,1.0,6.3,75,0.00,,,-99.99,FreeWX-Wi 1.02,2013-01-30 14:05:00,
2013-01-30 09:15:00,63.3,55.2,29.26,North,357,1.0,7.6,75,0.00,,,-99.99,FreeWX-Wi 1.02,2013-01-30 14:15:00,
2013-01-30 09:26:00,63.7,55.6,29.26,North,357,2.0,7.2,75,0.00,,,-99.99,FreeWX-Wi 1.02,2013-01-30 14:26:00,
2013-01-30 09:36:00,63.9,55.8,29.26,North,357,2.0,5.8,75,0.00,,,-99.99,FreeWX-Wi 1.02,2013-01-30 14:36:00,
2013-01-30 09:46:00,64.2,56.1,29.26,North,357,2.0,5.8,75,0.00,,,-99.99,FreeWX-Wi 1.02,2013-01-30 14:46:00,
2013-01-30 09:56:00,64.4,56.3,29.26,North,357,1.0,5.4,75,0.00,,,-99.99,FreeWX-Wi 1.02,2013-01-30 14:56:00,
2013-01-30 10:06:00,64.8,56.3,29.23,North,-999,0.0,5.8,74,0.00,,,-99.99,FreeWX-Wi 1.02,2013-01-30 15:06:00,
2013-01-30 10:16:00,64.9,56.5,29.23,North,-999,0.0,0.0,74,0.00,,,-99.99,FreeWX-Wi 1.02,2013-01-30 15:16:00,
2013-01-30 10:26:00,64.9,56.1,29.23,North,-999,0.0,3.1,73,0.00,,,-99.99,FreeWX-Wi 1.02,2013-01-30 15:26:00,
2013-01-30 10:36:00,65.1,56.3,29.23,North,-999,0.0,4.9,73,0.00,,,-99.99,FreeWX-Wi 1.02,2013-01-30 15:36:00,
2013-01-30 10:46:00,65.5,56.7,29.23,North,-999,0.0,0.0,73,0.00,,,-99.99,FreeWX-Wi 1.02,2013-01-30 15:46:00,
2013-01-30 10:56:00,65.7,56.3,29.23,North,-999,0.0,2.7,72,0.00,,,-99.99,FreeWX-Wi 1.02,2013-01-30 15:56:00,
2013-01-30 11:06:00,65.7,55.9,29.23,North,-999,0.0,5.8,71,0.00,,,-99.99,FreeWX-Wi 1.02,2013-01-30 16:06:00,
2013-01-30 11:16:00,65.8,56.1,29.23,North,-999,0.0,7.2,71,0.00,,,-99.99,FreeWX-Wi 1.02,2013-01-30 16:16:00,
2013-01-30 11:26:00,65.8,55.8,29.23,North,-999,0.0,7.2,70,0.00,,,-99.99,FreeWX-Wi 1.02,2013-01-30 16:26:00,
2013-01-30 11:36:00,66.0,55.9,29.23,North,-999,0.0,0.0,70,0.00,,,-99.99,FreeWX-Wi 1.02,2013-01-30 16:36:00,
2013-01-30 11:46:00,66.2,55.4,29.23,North,-999,0.0,3.6,68,0.00,,,-99.99,FreeWX-Wi 1.02,2013-01-30 16:46:00,
2013-01-30 11:56:00,66.2,55.4,29.20,North,-999,0.0,0.0,68,0.00,,,-99.99,FreeWX-Wi 1.02,2013-01-30 16:56:00,
2013-01-30 12:06:00,66.4,55.0,29.20,North,-999,0.0,0.0,67,0.00,,,-99.99,FreeWX-Wi 1.02,2013-01-30 17:06:00,
2013-01-30 12:16:00,66.6,54.9,29.20,North,-999,0.0,6.7,66,0.00,,,-99.99,FreeWX-Wi 1.02,2013-01-30 17:16:00,
2013-01-30 12:26:00,66.6,54.9,29.17,North,-999,0.0,4.9,66,0.00,,,-99.99,FreeWX-Wi 1.02,2013-01-30 17:26:00,
2013-01-30 12:36:00,66.7,54.7,29.17,North,-999,0.0,8.1,65,0.00,,,-99.99,FreeWX-Wi 1.02,2013-01-30 17:36:00,
2013-01-30 12:46:00,66.6,54.5,29.17,North,-999,0.0,4.0,65,0.00,,,-99.99,FreeWX-Wi 1.02,2013-01-30 17:46:00,
2013-01-30 12:56:00,66.9,54.7,29.14,North,-999,0.0,11.9,65,0.00,,,-99.99,FreeWX-Wi 1.02,2013-01-30 17:56:00,
2013-01-30 13:06:00,67.1,55.4,29.14,North,-999,0.0,4.0,66,0.00,,,-99.99,FreeWX-Wi 1.02,2013-01-30 18:06:00,
2013-01-30 13:16:00,67.1,55.4,29.14,North,-999,0.0,6.7,66,0.00,,,-99.99,FreeWX-Wi 1.02,2013-01-30 18:16:00,
2013-01-30 13:26:00,67.1,55.8,29.14,North,-999,0.0,0.0,67,0.00,,,-99.99,FreeWX-Wi 1.02,2013-01-30 18:26:00,
2013-01-30 13:36:00,67.1,55.8,29.14,North,-999,0.0,6.7,67,0.00,,,-99.99,FreeWX-Wi 1.02,2013-01-30 18:36:00,
2013-01-30 13:46:00,67.1,55.8,29.14,North,-999,0.0,2.2,67,0.00,,,-99.99,FreeWX-Wi 1.02,2013-01-30 18:46:00,
2013-01-30 13:56:00,67.1,55.8,29.12,North,-999,0.0,8.1,67,0.00,,,-99.99,FreeWX-Wi 1.02,2013-01-30 18:56:00,
2013-01-30 14:06:00,67.1,55.8,29.12,North,-999,0.0,0.0,67,0.00,,,-99.99,FreeWX-Wi 1.02,2013-01-30 19:06:00,
2013-01-30 14:16:00,67.5,56.1,29.12,North,-999,0.0,8.1,67,0.00,,,-99.99,FreeWX-Wi 1.02,2013-01-30 19:16:00,
2013-01-30 14:26:00,67.3,55.9,29.12,North,-999,0.0,6.3,67,0.00,,,-99.99,FreeWX-Wi 1.02,2013-01-30 19:26:00,
2013-01-30 14:36:00,67.3,55.6,29.09,North,-999,0.0,7.2,66,0.00,,,-99.99,FreeWX-Wi 1.02,2013-01-30 19:36:00,
2013-01-30 14:46:00,67.5,55.2,29.09,North,357,1.0,11.0,65,0.00,,,-99.99,FreeWX-Wi 1.02,2013-01-30 19:46:00,
2013-01-30 14:56:00,67.5,55.2,29.09,North,-999,0.0,6.3,65,0.00,,,-99.99,FreeWX-Wi 1.02,2013-01-30 19:56:00,
2013-01-30 15:06:00,67.8,55.2,29.06,North,-999,0.0,7.6,64,0.00,,,-99.99,FreeWX-Wi 1.02,2013-01-30 20:06:00,
2013-01-30 15:16:00,68.4,55.2,29.06,North,-999,0.0,4.5,63,0.00,,,-99.99,FreeWX-Wi 1.02,2013-01-30 20:16:00,
2013-01-30 15:26:00,68.7,54.3,29.06,North,-999,0.0,5.8,60,0.00,,,-99.99,FreeWX-Wi 1.02,2013-01-30 20:26:00,
2013-01-30 15:36:00,68.9,53.4,29.06,North,-999,0.0,7.6,58,0.00,,,-99.99,FreeWX-Wi 1.02,2013-01-30 20:36:00,
2013-01-30 15:46:00,68.9,53.1,29.06,North,-999,0.0,5.4,57,0.00,,,-99.99,FreeWX-Wi 1.02,2013-01-30 20:46:00,
2013-01-30 15:56:00,68.9,52.5,29.03,North,-999,0.0,4.0,56,0.00,,,-99.99,FreeWX-Wi 1.02,2013-01-30 20:56:00,
2013-01-30 16:06:00,68.9,52.5,29.03,North,-999,0.0,0.0,56,0.00,,,-99.99,FreeWX-Wi 1.02,2013-01-30 21:06:00,
2013-01-30 16:16:00,68.5,51.8,29.03,North,-999,0.0,0.0,55,0.00,,,-99.99,FreeWX-Wi 1.02,2013-01-30 21:16:00,
2013-01-30 16:26:00,68.5,51.8,29.03,North,-999,0.0,0.0,55,0.00,,,-99.99,FreeWX-Wi 1.02,2013-01-30 21:26:00,
2013-01-30 16:36:00,68.4,51.1,29.00,North,-999,0.0,0.0,54,0.00,,,-99.99,FreeWX-Wi 1.02,2013-01-30 21:36:00,
2013-01-30 16:46:00,68.4,51.1,29.00,North,-999,0.0,11.0,54,0.00,,,-99.99,FreeWX-Wi 1.02,2013-01-30 21:46:00,
2013-01-30 16:56:00,68.5,50.7,29.00,North,-999,0.0,9.2,53,0.00,,,-99.99,FreeWX-Wi 1.02,2013-01-30 21:56:00,
2013-01-30 17:06:00,68.2,50.4,29.03,North,357,1.0,6.3,53,0.00,,,-99.99,FreeWX-Wi 1.02,2013-01-30 22:06:00,
2013-01-30 17:16:00,68.0,50.2,29.03,North,357,1.0,6.3,53,0.00,,,-99.99,FreeWX-Wi 1.02,2013-01-30 22:16:00,
2013-01-30 17:26:00,68.0,50.7,29.00,North,357,1.0,7.6,54,0.00,,,-99.99,FreeWX-Wi 1.02,2013-01-30 22:26:00,
2013-01-30 17:36:00,67.8,50.5,29.00,North,357,1.0,6.3,54,0.00,,,-99.99,FreeWX-Wi 1.02,2013-01-30 22:36:00,
2013-01-30 17:46:00,67.6,50.4,29.00,North,357,1.0,8.7,54,0.00,,,-99.99,FreeWX-Wi 1.02,2013-01-30 22:46:00,
2013-01-30 17:56:00,67.6,50.4,29.00,North,-999,0.0,0.0,54,0.00,,,-99.99,FreeWX-Wi 1.02,2013-01-30 22:56:00,
2013-01-30 18:06:00,67.5,50.2,29.00,North,-999,0.0,0.0,54,0.00,,,-99.99,FreeWX-Wi 1.02,2013-01-30 23:06:00,
2013-01-30 18:16:00,67.3,50.0,29.00,North,-999,0.0,0.0,54,0.00,,,-99.99,FreeWX-Wi 1.02,2013-01-30 23:16:00,
2013-01-30 18:26:00,67.5,50.2,28.97,North,-999,0.0,7.6,54,0.00,,,-99.99,FreeWX-Wi 1.02,2013-01-30 23:26:00,
2013-01-30 18:36:00,67.3,50.0,28.97,North,-999,0.0,8.1,54,0.00,,,-99.99,FreeWX-Wi 1.02,2013-01-30 23:36:00,
2013-01-30 18:46:00,67.3,49.6,28.97,North,-999,0.0,6.7,53,0.00,,,-99.99,FreeWX-Wi 1.02,2013-01-30 23:46:00,
2013-01-30 18:56:00,67.1,49.5,28.94,North,357,1.0,11.0,53,0.00,,,-99.99,FreeWX-Wi 1.02,2013-01-30 23:56:00,
2013-01-30 19:06:00,67.1,49.5,28.94,North,357,1.0,5.8,53,0.00,,,-99.99,FreeWX-Wi 1.02,2013-01-31 00:06:00,
2013-01-30 19:16:00,67.1,49.8,28.94,North,357,1.0,11.4,54,0.00,,,-99.99,FreeWX-Wi 1.02,2013-01-31 00:16:00,
2013-01-30 19:26:00,66.9,50.2,28.94,North,357,1.0,10.5,55,0.00,,,-99.99,FreeWX-Wi 1.02,2013-01-31 00:26:00,
2013-01-30 19:36:00,66.9,50.2,28.94,North,357,1.0,7.6,55,0.00,,,-99.99,FreeWX-Wi 1.02,2013-01-31 00:36:00,
2013-01-30 19:46:00,66.9,50.2,28.94,North,357,2.0,10.5,55,0.00,,,-99.99,FreeWX-Wi 1.02,2013-01-31 00:46:00,
2013-01-30 19:56:00,66.7,50.0,28.91,North,357,2.0,8.3,55,0.00,,,-99.99,FreeWX-Wi 1.02,2013-01-31 00:56:00,
2013-01-30 20:06:00,66.7,50.0,28.91,North,357,2.0,6.3,55,0.00,,,-99.99,FreeWX-Wi 1.02,2013-01-31 01:06:00,
2013-01-30 20:16:00,66.7,50.0,28.91,North,357,1.0,8.7,55,0.00,,,-99.99,FreeWX-Wi 1.02,2013-01-31 01:16:00,
2013-01-30 20:26:00,66.7,50.0,28.88,North,357,2.0,17.4,55,0.00,,,-99.99,FreeWX-Wi 1.02,2013-01-31 01:26:00,
2013-01-30 20:36:00,66.9,50.2,28.88,North,357,2.0,11.0,55,0.00,,,-99.99,FreeWX-Wi 1.02,2013-01-31 01:36:00,
2013-01-30 20:46:00,67.1,50.4,28.88,North,357,2.0,16.3,55,0.00,,,-99.99,FreeWX-Wi 1.02,2013-01-31 01:46:00,
2013-01-30 20:57:00,67.1,50.4,28.88,North,357,2.0,11.0,55,0.00,,,-99.99,FreeWX-Wi 1.02,2013-01-31 01:57:00,
2013-01-30 21:07:00,67.3,50.5,28.88,North,357,2.0,8.3,55,0.00,,,-99.99,FreeWX-Wi 1.02,2013-01-31 02:07:00,
2013-01-30 21:17:00,67.5,50.2,28.88,North,357,2.0,14.5,54,0.00,,,-99.99,FreeWX-Wi 1.02,2013-01-31 02:17:00,
2013-01-30 21:27:00,67.5,50.2,28.85,North,-999,0.0,2.7,54,0.00,,,-99.99,FreeWX-Wi 1.02,2013-01-31 02:27:00,
2013-01-30 21:37:00,67.5,50.2,28.85,North,-999,0.0,5.8,54,0.00,,,-99.99,FreeWX-Wi 1.02,2013-01-31 02:37:00,
2013-01-30 21:47:00,67.5,50.7,28.85,North,-999,0.0,11.0,55,0.00,,,-99.99,FreeWX-Wi 1.02,2013-01-31 02:47:00,
2013-01-30 21:57:00,67.6,50.9,28.85,North,357,1.0,8.7,55,0.00,,,-99.99,FreeWX-Wi 1.02,2013-01-31 02:57:00,
2013-01-30 22:07:00,67.6,50.9,28.85,North,357,1.0,8.3,55,0.00,,,-99.99,FreeWX-Wi 1.02,2013-01-31 03:07:00,
2013-01-30 22:17:00,67.6,50.9,28.85,North,357,1.0,6.3,55,0.00,,,-99.99,FreeWX-Wi 1.02,2013-01-31 03:17:00,
2013-01-30 22:27:00,67.6,50.9,28.82,North,-999,0.0,0.0,55,0.00,,,-99.99,FreeWX-Wi 1.02,2013-01-31 03:27:00,
2013-01-30 22:37:00,67.8,50.5,28.82,North,-999,0.0,0.0,54,0.00,,,-99.99,FreeWX-Wi 1.02,2013-01-31 03:37:00,
2013-01-30 22:47:00,67.8,51.1,28.82,North,-999,0.0,4.9,55,0.00,,,-99.99,FreeWX-Wi 1.02,2013-01-31 03:47:00,
2013-01-30 22:57:00,67.6,51.8,28.79,North,357,1.0,8.7,57,0.00,,,-99.99,FreeWX-Wi 1.02,2013-01-31 03:57:00,
2013-01-30 23:07:00,66.9,53.4,28.79,North,357,2.0,8.1,62,0.00,,,-99.99,FreeWX-Wi 1.02,2013-01-31 04:07:00,
2013-01-30 23:17:00,66.4,53.8,28.76,North,357,3.0,10.1,64,0.00,,,-99.99,FreeWX-Wi 1.02,2013-01-31 04:17:00,
2013-01-30 23:27:00,66.2,54.5,28.76,North,357,3.0,11.0,66,0.00,,,-99.99,FreeWX-Wi 1.02,2013-01-31 04:27:00,
2013-01-30 23:37:00,66.4,55.0,28.76,North,357,3.0,5.4,67,0.00,,,-99.99,FreeWX-Wi 1.02,2013-01-31 04:37:00,
2013-01-30 23:47:00,66.4,55.4,28.76,North,357,2.0,11.9,68,0.00,,,-99.99,FreeWX-Wi 1.02,2013-01-31 04:47:00,
2013-01-30 23:57:00,66.4,55.0,28.73,North,357,1.0,12.3,67,0.00,,,-99.99,FreeWX-Wi 1.02,2013-01-31 04:57:00,